Regional Weather Roundup
Issued by NWS

Home | Current Version | Previous Version | Text Only | Print | Product List | Glossary Off
Versions: 1 2 3 4 5 6 7 8 9 10 11 12 13 14 15 16 17 18 19 20 21 22 23 24 25 26 27 28 29 30 31 32 33 34 35 36 37 38 39 40 41 42 43 44 45 46 47 48 49 50

000
ASUS43 KDTX 191710
RWRMI
MICHIGAN HOURLY REGIONAL WEATHER ROUNDUP
NATIONAL WEATHER SERVICE DETROIT/PONTIAC MI
100 PM EDT FRI SEP 19 2014

NOTE: "FAIR" INDICATES FEW OR NO CLOUDS BELOW 12,000 FEET WITH NO
SIGNIFICANT WEATHER AND/OR OBSTRUCTION TO VISIBILITY.

MIZ047>049-052>055-059>063-066>070-074>076-081>083-191800-
SOUTHEAST LOWER MICHIGAN

CITY           SKY/WX    TMP DP  RH WIND       PRES   REMARKS
ADRIAN         MOSUNNY   64  50  60 VRB3      30.21F
ALMA           MOSUNNY   62  49  62 SE5       30.20F
ANN ARBOR      SUNNY     65  46  50 CALM      30.21F
BAD AXE        SUNNY     61  49  65 S12       30.22F
DETROIT CITY   SUNNY     62  49  62 CALM      30.23F
DETROIT        PTSUNNY   62  43  49 CALM      30.23F
FLINT          SUNNY     64  46  52 VRB6      30.21F
GROSSE ILE     SUNNY     63  43  48 SE5       30.22F
HILLSDALE      SUNNY     65  51  58 S3        30.20F
HOWELL         SUNNY     62  45  54 SE5       30.21F

CITY           SKY/WX    TMP DP  RH WIND       PRES   REMARKS
JACKSON        SUNNY     65  50  58 SE8       30.20F
LAMBERTVILLE   SUNNY     64  50  59 CALM      30.22F
LANSING        SUNNY     64  50  60 SE6       30.19F
LAPEER         NOT AVBL
MASON          SUNNY     64  51  63 SE7       30.20F
MONROE         SUNNY     64  48  55 CALM      30.20F
MT. CLEMENS    PTSUNNY   58  51  75 E5        30.22F
PONTIAC        PTSUNNY   62  44  51 VRB6      30.21F
PORT HOPE        N/A     61  47  59 SE10G17   30.20F
PORT HURON     MOSUNNY   63  50  63 SE7       30.24S
TRI CITIES     SUNNY     61  44  53 S8        30.21F
YPSILANTI      SUNNY     68  43  40 NE5       30.22F
$$
MIZ043>046-050>051-056>058-064>065-071>073-077>080-191800-
SOUTHWEST LOWER MICHIGAN

CITY           SKY/WX    TMP DP  RH WIND       PRES   REMARKS
BATTLE CREEK   SUNNY     66  53  63 S8        30.20F
BENTON HARBOR  SUNNY     67  53  61 S9        30.17S
BIG RAPIDS     PTSUNNY   63  55  76 S12       30.17S
COLDWATER      SUNNY     66  53  61 S7        30.19F
HOLLAND        MOSUNNY   69  55  60 S10       30.18S
GRAND RAPIDS   MOSUNNY   66  54  65 S12       30.18F
KALAMAZOO      SUNNY     66  50  56 S7        30.19F
MARSHALL       SUNNY     65  51  58 S10G16    30.19F
MUSKEGON       PTSUNNY   68  53  58 SE9       30.14F
$$
MIZ016>042-191800-
NORTHERN LOWER MICHIGAN

CITY           SKY/WX    TMP DP  RH WIND       PRES   REMARKS
ALPENA         PTSUNNY   60  45  57 S14       30.17F
BEAVER ISLAND  MOSUNNY   64  53  68 S12G17    30.08F
BELLAIRE       PTSUNNY   65  49  57 S9G18     30.13F
CADILLAC       PTSUNNY   62  52  71 SE12      30.15F
CHARLEVOIX     MOSUNNY   65  52  62 S10G17    30.13F
FRANKFORT      MOSUNNY   66  51  58 S12       30.10F
GAYLORD        PTSUNNY   58  47  66 S12       30.15F
GRAYLING       PTSUNNY   59  47  64 S8        30.18S
HARBOR SPRINGS PTSUNNY   65  50  58 S7        30.11F
HOUGHTON LAKE  PTSUNNY   59  47  64 S9        30.18F
MANISTEE       MOSUNNY   63  52  67 S9G16     30.12F
OSCODA         MOSUNNY   59  43  55 S10       30.20F
PELLSTON       PTSUNNY   64  50  60 S10       30.12F
TRAVERSE CITY  CLOUDY    67  51  56 S7        30.09F
$$
MIZ007>008-015-191800-
EASTERN UPPER MICHIGAN

CITY           SKY/WX    TMP DP  RH WIND       PRES   REMARKS
KINROSS        CLOUDY    57  48  72 SE13G18   30.11S
MACKINAC ISLAN PTSUNNY   58  49  69 SE9       30.11F
NEWBERRY       CLOUDY    55  50  83 S16G29    30.06F
S. S. MARIE    CLOUDY    55  46  71 SE15      30.11F
$$
MIZ004>006-011>014-085-191800-
CENTRAL UPPER MICHIGAN

CITY           SKY/WX    TMP DP  RH WIND       PRES   REMARKS
MANISTIQUE     CLOUDY    58  55  90 S16       30.06F
ESCANABA       CLOUDY    61  55  82 S14G23    30.03F
MENOMINEE      MOSUNNY   66  55  68 SW17G30   30.02F
SAWYER-GWINN   MOSUNNY   59  50  72 S26G33    29.98F
$$
MIZ001>003-009>011-084-191800-
WESTERN UPPER MICHIGAN

CITY           SKY/WX    TMP DP  RH WIND       PRES   REMARKS
IRON MOUNTAIN  MOSUNNY   60  50  69 S14       29.99F
HOUGHTON       PTSUNNY   64  51  62 S16       29.83F
COPPER HARBOR    N/A     62  52  69 SW10G17   29.83F
IRONWOOD       CLOUDY    63  52  67 S20G33    29.79F
$$

ABBREVIATIONS USED IN REMARKS
   TC - TEMPERATURE IN CELSIUS
  WCI - WIND CHILL INDEX
   HX - HEAT INDEX
  VSB - VISIBILITY




USA.gov is the U.S. government's official web portal to all federal, state and local government web resources and services.